Waarnemingen

Advertentie
Mijn weer
Tännäs, Zweden (2308): temperatuur & dauwpunt: 13.01.2018 18:00:00 - 19.01.2018 18:00:00 (CET)Tännäs, Zweden (2308): windsnelheid & windstoten: 13.01.2018 18:00:00 - 19.01.2018 18:00:00 (CET)Tännäs, Zweden (2308): windrichting: 13.01.2018 18:00:00 - 19.01.2018 18:00:00 (CET)Tännäs, Zweden (2308): luchtdruk: 13.01.2018 18:00:00 - 19.01.2018 18:00:00 (CET)Tännäs, Zweden (2308): zicht: 13.01.2018 18:00:00 - 19.01.2018 18:00:00 (CET)Tännäs, Zweden (2308): neerslag: 13.01.2018 18:00:00 - 19.01.2018 18:00:00 (CET)
Datum & Tijd tt [°C] td [°C] ff [km/u] ff [kn] fx [km/u] fx [kn] dd ppp [hPa] vv [km] rr [mm]
19.01.2018 18:00:00 -8,3 -9,5 9 5 21 11 Z 1001,1 7 0,0
19.01.2018 17:00:00 -9,4 -10,9 6 3 14 8 Z 1001,0 22 0,0
19.01.2018 16:00:00 -9,5 -11,0 4 2 12 6 ZZW 1000,7 41 0,0
19.01.2018 15:00:00 -8,7 -10,5 6 3 14 8 Z 1000,3 15 0,0
19.01.2018 14:00:00 -7,8 -9,7 5 3 14 8 Z 1000,0 5 0,0
19.01.2018 13:00:00 -8,0 -9,6 5 3 16 9 ZZO 999,9 3,5 0,0
19.01.2018 12:00:00 -8,4 -9,9 6 3 18 10 ZZO 999,9 2,5 0,0
19.01.2018 11:00:00 -8,8 -10,1 6 3 19 10 ZO 999,9 2,4 0,0
19.01.2018 10:00:00 -9,0 -10,3 7 4 16 9 Z 999,5 6 0,1
19.01.2018 09:00:00 -9,1 -10,4 5 3 16 9 ZZO 999,1 23 0,0
19.01.2018 08:00:00 -9,2 -10,4 3 2 14 7 ZO 998,6 4,2 0,0
19.01.2018 07:00:00 -9,2 -10,4 4 2 13 7 ZZO 998,2 11 0,0
19.01.2018 06:00:00 -9,3 -10,5 3 2 11 6 ZO 998,1 17 0,0
19.01.2018 05:00:00 -9,6 -10,9 5 3 15 8 OZO 998,0 21 0,0
19.01.2018 04:00:00 -9,7 -10,8 5 3 14 8 OZO 997,9 18 0,0
19.01.2018 03:00:00 -10,3 -11,6 5 3 16 9 O 997,9 23 0,0
19.01.2018 02:00:00 -10,3 -11,6 6 3 16 8 O 997,8 24 0,0
19.01.2018 01:00:00 -10,4 -11,9 4 2 16 9 O 997,7 22 0,0
19.01.2018 00:00:00 -10,5 -12,0 9 5 21 11 O 997,5 12 0,0
18.01.2018 23:00:00 -10,5 -11,8 7 4 18 10 O 997,5 12 0,0
18.01.2018 22:00:00 -10,6 -11,9 10 5 21 12 O 997,4 24 0,0
18.01.2018 21:00:00 -10,6 -12,1 7 4 17 9 O 997,0 16 0,0
18.01.2018 20:00:00 -10,7 -12,2 6 4 20 11 O 996,8 20 0,1
18.01.2018 19:00:00 -10,8 -12,3 6 3 16 9 O 996,7 19 0,0
18.01.2018 18:00:00 -10,8 -12,3 6 3 16 9 O 996,7 10 0,0
18.01.2018 17:00:00 -10,8 -12,3 6 4 13 7 O 996,3 3,3 0,0
18.01.2018 16:00:00 -10,9 -12,4 5 3 18 10 O 996,1 10 0,0
18.01.2018 15:00:00 -10,9 -12,5 5 3 16 9 O 995,9 6 0,1
18.01.2018 14:00:00 -10,9 -12,5 7 4 18 10 O 995,7 6 0,0
18.01.2018 13:00:00 -10,9 -12,6 7 4 14 8 OZO 995,6 7 0,0
18.01.2018 12:00:00 -11,0 -12,6 8 4 14 8 O 995,8 3,8 0,1
18.01.2018 11:00:00 -10,9 -12,4 5 3 19 10 O 995,8 3,1 0,0
18.01.2018 10:00:00 -10,7 -12,2 9 5 20 11 O 995,3 9 0,0
18.01.2018 09:00:00 -10,4 -11,9 9 5 17 9 O 995,3 11 0,0
18.01.2018 08:00:00 -10,4 -11,7 7 4 18 10 O 995,2 3,9 0,1
18.01.2018 07:00:00 -10,5 -12,0 8 4 18 10 O 994,9 3,7 0,1
18.01.2018 06:00:00 -9,9 -11,2 7 4 21 11 O 994,8 1,9 0,1
18.01.2018 05:00:00 -9,4 -10,7 8 4 17 9 O 994,8 0,8 0,0
18.01.2018 04:00:00 -8,9 -10,2 9 5 18 10 OZO 994,7 3,7 0,0
18.01.2018 03:00:00 -8,9 -10,4 8 4 18 10 O 994,6 3,8 0,1
18.01.2018 02:00:00 -8,9 -10,4 7 4 19 10 O 994,8 11 0,0
18.01.2018 01:00:00 -9,0 -10,5 9 5 17 9 O 994,5 11 0,0
18.01.2018 00:00:00 -9,0 -10,6 6 3 20 11 OZO 994,4 16 0,1
17.01.2018 23:00:00 -8,9 -10,5 6 3 21 11 OZO 994,3 6 0,0
17.01.2018 22:00:00 -8,7 -10,3 9 5 28 15 OZO 994,0 6 0,0
17.01.2018 21:00:00 -8,5 -9,7 8 4 19 10 OZO 993,4 4,7 0,2
17.01.2018 20:00:00 -8,2 -9,3 6 4 17 9 OZO 993,0 1,5 0,2
17.01.2018 19:00:00 -8,1 -9,2 6 3 15 8 O 992,7 15 0,0
17.01.2018 18:00:00 -7,9 -9,1 9 5 18 10 O 992,3 3,6 0,2
17.01.2018 17:00:00 -7,5 -8,6 6 3 18 10 O 991,6 1,2 0,2
17.01.2018 16:00:00 -7,2 -8,3 8 4 21 11 O 991,0 1,1 0,5
17.01.2018 15:00:00 -6,9 -8,0 8 5 21 11 O 990,5 1,4 0,4
17.01.2018 14:00:00 -6,5 -7,6 8 5 18 10 O 989,9 1,8 0,2
17.01.2018 13:00:00 -6,4 -7,3 6 3 19 10 O 989,6 3,8 0,2
17.01.2018 12:00:00 -6,3 -7,2 7 4 22 12 O 989,0 1,1 0,3
17.01.2018 11:00:00 -6,1 -7,0 8 4 31 17 O 988,5 1,4 0,2
17.01.2018 10:00:00 -5,8 -6,9 8 4 27 14 OZO 988,0 4,3 0,4
17.01.2018 09:00:00 -5,6 -6,4 8 5 17 9 O 987,2 1,2 0,2
17.01.2018 08:00:00 -5,2 -6,3 7 4 22 12 O 986,6 34 0,0
17.01.2018 07:00:00 -4,6 -5,4 6 3 18 10 O 985,9 15 0,0
17.01.2018 06:00:00 -4,4 -5,2 8 4 19 10 O 985,3 18 0,0
17.01.2018 05:00:00 -4,2 -5,0 8 5 21 11 O 985,0 13 0,1
17.01.2018 04:00:00 -4,1 -4,9 10 5 23 13 O 984,8 16 0,1
17.01.2018 03:00:00 -4,1 -4,9 9 5 24 13 O 984,5 4,3 0,0
17.01.2018 02:00:00 -3,6 -4,6 7 4 20 11 OZO 984,2 24 0,0
17.01.2018 01:00:00 -3,5 -4,6 8 4 20 11 ZO 983,4 7 0,1
17.01.2018 00:00:00 -3,6 -4,6 7 4 22 12 ZZO 983,0 7 0,1
16.01.2018 23:00:00 -3,4 -4,7 10 5 24 13 OZO 982,1 10 0,0
16.01.2018 22:00:00 -3,6 -4,9 10 5 28 15 ZO 980,9 5 0,1
16.01.2018 21:00:00 -3,7 -4,8 12 6 32 17 OZO 980,6 18 0,0
16.01.2018 20:00:00 -3,9 -5,0 13 7 32 18 OZO 980,3 9 0,1
16.01.2018 19:00:00 -4,2 -5,0 11 6 37 20 OZO 979,8 8 0,0
16.01.2018 18:00:00 -4,5 -5,3 9 5 27 14 OZO 979,5 2,9 0,4
16.01.2018 17:00:00 -4,6 -5,3 11 6 29 16 OZO 979,5 1,7 0,4
16.01.2018 16:00:00 -4,8 -5,5 12 6 29 16 O 979,7 1,4 0,3
16.01.2018 15:00:00 -4,8 -5,5 13 7 31 17 O 980,0 0,5 0,9
16.01.2018 14:00:00 -4,8 -5,5 11 6 25 14 O 980,1 1,0 0,8
16.01.2018 13:00:00 -4,9 -5,6 11 6 27 15 OZO 980,9 0,6 1,0
16.01.2018 12:00:00 -5,0 -5,7 13 7 27 14 O 981,6 0,7 1,0
16.01.2018 11:00:00 -5,1 -5,8 12 6 28 15 OZO 982,3 0,9 0,6
16.01.2018 10:00:00 -5,2 -5,9 13 7 37 20 O 982,8 1,3 0,4
16.01.2018 09:00:00 -5,3 -6,0 12 7 29 15 OZO 983,3 1,4 0,5
16.01.2018 08:00:00 -5,4 -6,2 12 7 27 15 O 984,1 1,1 0,6
16.01.2018 07:00:00 -5,7 -6,5 13 7 28 15 O 984,7 0,8 0,5
16.01.2018 06:00:00 -6,0 -6,9 12 6 31 17 O 985,8 1,9 0,4
16.01.2018 05:00:00 -6,2 -7,3 11 6 37 20 O 986,9 0,9 0,6
16.01.2018 04:00:00 -5,7 -8,0 13 7 32 17 ZO 987,6 4,5 0,1
16.01.2018 03:00:00 -6,2 -8,3 10 5 37 20 ZO 989,1 3,3 0,2
16.01.2018 02:00:00 -7,0 -8,8 10 5 32 18 ZZO 990,1 1,8 0,3
16.01.2018 01:00:00 -7,3 -9,4 11 6 39 21 ZZO 991,2 2,4 0,1
16.01.2018 00:00:00 -7,6 -9,7 11 6 33 18 ZO 992,6 2,1 0,3
15.01.2018 23:00:00 -7,9 -9,5 10 5 33 18 ZO 993,6 0,8 0,2
15.01.2018 22:00:00 -7,8 -10,0 10 5 30 16 ZO 994,8 2,6 0,0
15.01.2018 21:00:00 -8,0 -10,1 11 6 35 19 ZZO 995,9 2,3 0,2
15.01.2018 20:00:00 -8,1 -10,2 9 5 35 19 ZO 997,4 1,8 0,1
15.01.2018 19:00:00 -8,2 -9,8 10 5 31 17 ZZO 998,3 1,6 0,1
15.01.2018 18:00:00 -8,2 -9,8 10 6 33 18 Z 999,5 3,5 0,0
15.01.2018 17:00:00 -8,2 -10,3 9 5 31 17 ZZO 1000,7 4,7 0,1
15.01.2018 16:00:00 -8,0 -10,1 11 6 30 16 Z 1001,9 3,3 0,0
15.01.2018 15:00:00 -7,9 -10,0 9 5 31 17 ZZO 1002,8 2,4 0,0
15.01.2018 14:00:00 -7,7 -9,6 15 8 50 27 Z 1003,7 1,8 0,0
15.01.2018 13:00:00 -7,7 -9,8 17 9 46 25 Z 1004,5 4,8 0,0
15.01.2018 12:00:00 -7,7 -9,9 16 9 44 24 Z 1005,4 4,7 0,0
15.01.2018 11:00:00 -7,7 -10,1 20 11 41 22 Z 1006,4 4,4 0,1
15.01.2018 10:00:00 -7,6 -10,0 13 7 41 22 Z 1007,5 9 0,0
15.01.2018 09:00:00 -7,5 -9,6 14 8 43 23 Z 1007,9 10 0,0
15.01.2018 08:00:00 -7,4 -9,3 14 7 42 23 Z 1008,3 6 0,0
15.01.2018 07:00:00 -7,2 -8,6 17 9 45 24 Z 1008,7 - 0,1
15.01.2018 06:00:00 -7,3 -8,4 20 11 44 24 Z 1009,7 - 0,0
15.01.2018 05:00:00 -7,2 -9,0 13 7 41 22 Z 1010,8 - 0,0
15.01.2018 04:00:00 -7,2 -8,7 20 11 44 24 Z 1012,0 - 0,0
15.01.2018 03:00:00 -7,3 -8,9 18 10 38 21 Z 1013,5 6 0,0
15.01.2018 02:00:00 -7,6 -9,4 11 6 34 19 Z 1015,3 4,7 0,0
15.01.2018 01:00:00 -7,8 -9,2 12 7 35 19 Z 1016,1 2,6 0,1
15.01.2018 00:00:00 -8,0 -9,3 9 5 35 19 ZZO 1017,1 3,5 0,0
14.01.2018 23:00:00 -8,3 -9,8 14 7 34 19 Z 1018,2 3,2 0,0
14.01.2018 22:00:00 -8,7 -10,2 13 7 35 19 Z 1018,6 1,4 0,0
14.01.2018 21:00:00 -8,4 -10,5 12 7 32 17 Z 1019,4 6 0,0
14.01.2018 20:00:00 -8,4 -10,8 13 7 38 20 Z 1020,2 7 0,0
14.01.2018 19:00:00 -8,8 -11,2 16 9 43 23 Z 1020,5 11 0,0
14.01.2018 18:00:00 -8,3 -11,1 14 7 40 21 Z 1021,6 8 0,0
14.01.2018 17:00:00 -8,2 -10,9 13 7 34 19 Z 1022,5 6 0,0
14.01.2018 16:00:00 -7,9 -10,6 17 9 44 24 Z 1023,9 6 0,0
14.01.2018 15:00:00 -8,3 -10,8 12 7 29 16 Z 1024,5 7 0,0
14.01.2018 14:00:00 -8,3 -10,5 10 5 39 21 Z 1025,3 17 0,0
14.01.2018 13:00:00 -8,4 -10,7 11 6 26 14 ZZW 1026,2 6 0,0
14.01.2018 12:00:00 -8,5 -10,1 9 5 22 12 Z 1027,1 10 0,0
14.01.2018 11:00:00 -9,1 -10,6 10 5 23 13 Z 1028,1 3,7 0,0
14.01.2018 10:00:00 -9,6 -11,4 9 5 24 13 Z 1028,5 6 0,0
14.01.2018 09:00:00 -9,4 -10,9 9 5 24 13 Z 1029,2 2,0 0,0
14.01.2018 08:00:00 -9,6 -11,1 5 3 17 9 ZZW 1029,3 1,0 0,0
14.01.2018 07:00:00 -11,1 -12,1 7 4 19 11 Z 1029,8 1,2 0,0
14.01.2018 06:00:00 -12,1 -13,5 3 1 13 7 ZZO 1030,8 2,4 0,0
14.01.2018 05:00:00 -12,8 -14,0 3 2 13 7 ZW 1031,4 35 0,0
14.01.2018 04:00:00 -13,7 -15,1 3 1 6 3 WZW 1032,6 33 0,0
14.01.2018 03:00:00 -14,3 -16,0 3 1 6 3 W 1033,2 30 0,0
14.01.2018 02:00:00 -13,1 -14,5 3 2 10 6 ZZW 1033,3 9 0,0
14.01.2018 01:00:00 -13,2 -14,5 3 2 13 7 ZZO 1033,8 5 0,0
14.01.2018 00:00:00 -14,5 -16,5 3 2 10 6 ZO 1034,4 1,4 0,3
13.01.2018 23:00:00 -15,3 -16,6 2 1 6 3 ZZO 1034,9 15 0,0
13.01.2018 22:00:00 -15,4 -17,2 3 2 7 4 OZO 1035,4 50 0,0
13.01.2018 21:00:00 -14,9 -16,7 2 1 8 4 ZO 1035,6 50 0,0
13.01.2018 20:00:00 -15,8 -17,5 3 1 8 5 OZO 1036,1 50 0,0
13.01.2018 19:00:00 -15,6 -17,3 3 2 10 5 ZO 1036,3 50 0,0
13.01.2018 18:00:00 -15,3 -17,0 3 2 7 4 ZO 1036,4 50 0,0

tt = temperatuur
td = dauwpunt
ff = windsnelheid
fx = windstoten
dd = windrichting
ppp = luchtdruk
vv = zicht
rr = neerslag

Weerstations in de omgeving